Valentine, NE

3:11 AM CST on December 10, 2016 (GMT -0600)
Miller Field

Weather History for KVTN - January, 2013

Change the Weather History Date:

Tuesday, January 29, 2013

  Actual Average Record
Temperature  
Mean Temperature 26 °F 24 °F  
Max Temperature 35 °F 37 °F 63 °F (1931)
Min Temperature 16 °F 12 °F -23 °F (1966)
Degree Days  
Heating Degree Days 39 41  
Month to date heating degree days 1145 1202  
Since 1 July heating degree days 3821 4097  
Cooling Degree Days 0 0  
Month to date cooling degree days 0 0  
Year to date cooling degree days 0 0  
Moisture  
Dew Point 23 °F    
Average Humidity 81    
Maximum Humidity 92    
Minimum Humidity 69    
Precipitation  
Precipitation 0.01 in 0.01 in 0.30 in (1922)
Month to date precipitation 0.23 0.24  
Year to date precipitation 0.23 0.24  
Snow  
Snow 0.30 in 0.10 in 5.00 in (1922)
Month to date snowfall 4.5 3.5  
Since 1 July snowfall 17.8 16.2  
Snow Depth 1.00 in    
Sea Level Pressure  
Sea Level Pressure 29.83 in    
Wind  
Wind Speed 10 mph (NNW)    
Max Wind Speed 26 mph    
Max Gust Speed 35 mph    
Visibility 7 miles    
Events Snow    
T = Trace of Precipitation, MM = Missing Value Source: NWS Daily Summary

Daily Weather History Graph

Daily Weather History Graph

Search for Another Location

Airport or City:

Trip Planner

Search our weather history database for the weather conditions in past years. The results will help you decide how hot, cold, wet, or windy it might be!

Date:

Astronomy

Jan. 29, 2013 Rise Set
Actual Time 7:59 AM CST 5:51 PM CST
Civil Twilight 7:29 AM CST 6:21 PM CST
Nautical Twilight 6:55 AM CST 6:55 PM CST
Astronomical Twilight 6:22 AM CST 7:29 PM CST
Moon 8:55 PM CST (1/29) 8:52 AM CST (1/29)
Length of Visible Light 10h 52m
Length of Day
9h 52m
Waning Gibbous, 93% of the Moon is Illuminated
Jan 29
Waning Gibbous
Feb 3
Last Quarter
Feb 10
New
Feb 17
First Quarter
Feb 25
Full

Hourly Weather History & Observations

Time (CST) Temp. Windchill Dew Point Humidity Pressure Visibility Wind Dir Wind Speed Gust Speed Precip Events Conditions
12:25 AM 30.2 °F 21.3 °F 28.4 °F 93% 29.72 in 3.0 mi NW 10.4 mph - 0.00 in Snow Light Snow
12:34 AM 30.2 °F 21.3 °F 28.4 °F 93% 29.73 in 2.5 mi NW 10.4 mph - 0.00 in Snow Light Snow
12:50 AM 30.2 °F 20.8 °F 28.4 °F 93% 29.72 in 3.0 mi NW 11.5 mph - 0.00 in Snow Light Snow
12:52 AM 30.0 °F 20.5 °F 28.0 °F 92% 29.79 in 3.0 mi NW 11.5 mph - 0.00 in Snow Light Snow
1:52 AM 28.9 °F 21.1 °F 27.0 °F 92% 29.78 in 5.0 mi NW 8.1 mph - 0.00 in Snow Light Snow
2:02 AM 28.4 °F 20.4 °F 26.6 °F 93% 29.69 in 9.0 mi NNW 8.1 mph - 0.00 in   Mostly Cloudy
2:52 AM 28.9 °F 21.9 °F 27.0 °F 92% 29.79 in 10.0 mi NW 6.9 mph - 0.00 in   Overcast
3:39 AM 28.4 °F 21.2 °F 26.6 °F 93% 29.70 in 10.0 mi NW 6.9 mph - N/A   Overcast
3:52 AM 28.0 °F 20.8 °F 26.1 °F 92% 29.78 in 10.0 mi NW 6.9 mph - N/A   Overcast
4:52 AM 25.0 °F 17.1 °F 23.0 °F 92% 29.78 in 10.0 mi WNW 6.9 mph - N/A   Partly Cloudy
5:52 AM 25.0 °F 18.1 °F 23.0 °F 92% 29.79 in 10.0 mi WNW 5.8 mph - N/A   Overcast
6:52 AM 19.4 °F 12.8 °F 17.6 °F 93% 29.70 in 10.0 mi West 4.6 mph - N/A   Partly Cloudy
7:52 AM 19.0 °F 10.0 °F 16.0 °F 88% 29.80 in 10.0 mi WNW 6.9 mph - N/A   Partly Cloudy
8:52 AM 21.0 °F 12.4 °F 19.0 °F 92% 29.81 in 10.0 mi WNW 6.9 mph - N/A   Mostly Cloudy
9:52 AM 24.1 °F 14.4 °F 21.0 °F 88% 29.79 in 10.0 mi WNW 9.2 mph - N/A   Clear
10:52 AM 26.6 °F 22.6 °F 23.0 °F 86% 29.72 in 10.0 mi West 3.5 mph - N/A   Mostly Cloudy
11:52 AM 30.0 °F 23.2 °F 25.0 °F 82% 29.79 in 10.0 mi NW 6.9 mph - N/A   Mostly Cloudy
12:52 PM 33.1 °F 24.4 °F 26.1 °F 75% 29.79 in 10.0 mi NW 11.5 mph - N/A   Overcast
1:52 PM 34.0 °F 25.5 °F 26.1 °F 73% 29.79 in 10.0 mi NNW 11.5 mph - N/A   Overcast
2:52 PM 34.0 °F 23.8 °F 25.0 °F 70% 29.76 in 10.0 mi NNW 16.1 mph - N/A   Overcast
3:52 PM 33.1 °F 23.4 °F 25.0 °F 72% 29.78 in 10.0 mi NNW 13.8 mph - N/A   Clear
4:52 PM 32.0 °F 23.6 °F 24.1 °F 73% 29.82 in 10.0 mi NNW 10.4 mph - N/A   Clear
5:52 PM 30.9 °F 21.7 °F 24.1 °F 76% 29.86 in 10.0 mi NNW 11.5 mph - N/A   Clear
6:52 PM 28.0 °F 18.1 °F 21.9 °F 78% 29.90 in 10.0 mi NNW 11.5 mph - N/A   Clear
7:44 PM 28.4 °F 18.5 °F 23.0 °F 80% 29.82 in 10.0 mi NNW 11.5 mph - N/A   Mostly Cloudy
7:52 PM 28.9 °F 17.7 °F 23.0 °F 78% 29.92 in 10.0 mi NNW 15.0 mph 20.7 mph N/A   Overcast
8:52 PM 28.9 °F 18.2 °F 24.1 °F 82% 29.94 in 10.0 mi NNW 13.8 mph 20.7 mph N/A   Overcast
9:52 PM 27.0 °F 14.3 °F 24.1 °F 89% 29.95 in 8.0 mi North 17.3 mph 24.2 mph N/A   Overcast
9:58 PM 26.6 °F 12.7 °F 24.8 °F 93% 29.86 in 2.5 mi North 20.7 mph 26.5 mph N/A   Overcast
10:08 PM 24.8 °F 11.5 °F 23.0 °F 93% 29.86 in 1.8 mi NNE 17.3 mph 26.5 mph N/A   Overcast
10:17 PM 24.8 °F 11.5 °F 23.0 °F 93% 29.87 in 2.0 mi North 17.3 mph 26.5 mph N/A   Overcast
10:36 PM 24.8 °F 11.5 °F 21.2 °F 86% 29.88 in 1.5 mi North 17.3 mph 27.6 mph 0.00 in Snow Light Snow
10:52 PM 21.9 °F 7.8 °F 19.9 °F 92% 29.99 in 1.2 mi North 17.3 mph 29.9 mph 0.00 in Snow Light Snow
10:59 PM 21.2 °F 6.0 °F 19.4 °F 93% 29.89 in 1.8 mi North 19.6 mph 29.9 mph 0.00 in Snow Light Snow
11:15 PM 19.4 °F 5.0 °F 17.6 °F 93% 29.90 in 1.5 mi North 16.1 mph 31.1 mph 0.00 in Snow Light Snow
11:20 PM 19.4 °F 3.2 °F 17.6 °F 93% 29.91 in 0.8 mi North 20.7 mph 34.5 mph 0.00 in Snow Light Snow
11:27 PM 19.4 °F 1.4 °F 15.8 °F 86% 29.91 in 1.2 mi North 26.5 mph 33.4 mph 0.01 in Snow Light Snow
11:38 PM 19.4 °F 3.6 °F 15.8 °F 86% 29.92 in 2.0 mi North 19.6 mph 29.9 mph 0.01 in Snow Light Snow
11:52 PM 19.0 °F 4.5 °F 16.0 °F 88% 30.02 in 3.0 mi North 16.1 mph 27.6 mph 0.01 in   Overcast